ACA1492 CYVR-KLAX

Flight info

Callsign ACA1492
Flight time N/A
Altitude 41000
Route SEA J5 SUMMA DCT 4230N12050W DCT FRA J7 REBRG IRNMN2
Aircraft B789/H-SDE1E2E3FGHIJ2J3J4J5M1RWXY/LB1D1

Departure

Time 2026-05-06 20:40
Airport Vancouver International Airport (CYVR)

Arrival

Time N/A
Airport Los Angeles International Airport (KLAX)
Time Latitude Longitude Altitude Speed Heading
2026-05-06 19:35 49.19806 -123.18170 24 ft 0 kts 43°
2026-05-06 20:25 49.19797 -123.18183 29 ft 3 kts 43°
2026-05-06 20:25 49.19783 -123.18202 29 ft 3 kts 43°
2026-05-06 20:25 49.19769 -123.18222 29 ft 3 kts 43°
2026-05-06 20:26 49.19753 -123.18239 29 ft 3 kts 21°
2026-05-06 20:26 49.19733 -123.18246 27 ft 3 kts 359°
2026-05-06 20:26 49.19713 -123.18241 29 ft 3 kts 338°
2026-05-06 20:26 49.19711 -123.18240 28 ft 0 kts 334°
2026-05-06 20:31 49.19712 -123.18241 28 ft 1 kts 330°
2026-05-06 20:32 49.19737 -123.18273 27 ft 9 kts 311°
2026-05-06 20:32 49.19767 -123.18391 25 ft 15 kts 287°
2026-05-06 20:32 49.19818 -123.18552 29 ft 19 kts 298°
2026-05-06 20:32 49.19852 -123.18754 26 ft 21 kts 290°
2026-05-06 20:33 49.19923 -123.18839 27 ft 9 kts 338°
2026-05-06 20:33 49.19947 -123.18875 29 ft 4 kts 304°
2026-05-06 20:33 49.19957 -123.18919 29 ft 6 kts 286°
2026-05-06 20:33 49.19971 -123.18999 26 ft 10 kts 288°
2026-05-06 20:34 49.20025 -123.19055 29 ft 10 kts
2026-05-06 20:34 49.20099 -123.19037 28 ft 12 kts 12°
2026-05-06 20:34 49.20173 -123.19050 30 ft 8 kts 327°
2026-05-06 20:34 49.20193 -123.19101 30 ft 7 kts 289°
2026-05-06 20:35 49.20203 -123.19192 30 ft 11 kts 278°
2026-05-06 20:35 49.20216 -123.19327 30 ft 15 kts 279°
2026-05-06 20:35 49.20235 -123.19501 29 ft 18 kts 282°
2026-05-06 20:35 49.20265 -123.19712 29 ft 22 kts 282°
2026-05-06 20:36 49.20292 -123.19958 30 ft 25 kts 279°
2026-05-06 20:36 49.20356 -123.20111 26 ft 7 kts 335°
2026-05-06 20:36 49.20400 -123.20126 27 ft 6 kts 355°
2026-05-06 20:36 49.20406 -123.20126 27 ft 0 kts
2026-05-06 20:38 49.20412 -123.20124 27 ft 3 kts
2026-05-06 20:38 49.20443 -123.20117 27 ft 7 kts 11°
2026-05-06 20:38 49.20494 -123.20087 28 ft 8 kts 43°
2026-05-06 20:38 49.20509 -123.20034 28 ft 6 kts 79°
2026-05-06 20:39 49.20504 -123.19947 27 ft 10 kts 102°
2026-05-06 20:39 49.20483 -123.19803 29 ft 17 kts 101°
2026-05-06 20:39 49.20455 -123.19566 27 ft 35 kts 99°
2026-05-06 20:39 49.20388 -123.18926 27 ft 87 kts 100°
2026-05-06 20:40 49.20253 -123.17750 27 ft 135 kts 99°
2026-05-06 20:40 49.20066 -123.16202 236 ft 152 kts 104°
2026-05-06 20:40 49.19836 -123.14576 700 ft 157 kts 100°
2026-05-06 20:40 49.19634 -123.12916 1300 ft 160 kts 102°
2026-05-06 20:41 49.19427 -123.11232 1904 ft 163 kts 103°
2026-05-06 20:41 49.19211 -123.09496 2474 ft 167 kts 102°
2026-05-06 20:41 49.19806 -123.18170 24 ft 0 kts 43°